Regional Weather Roundup
Issued by NWS

Home | Current Version | Previous Version | Text Only | Print | Product List | Glossary On
Versions: 1 2 3 4 5 6 7 8 9 10 11 12 13 14 15 16 17 18 19 20 21 22 23 24 25 26 27 28 29 30 31 32 33 34 35 36 37 38 39 40 41 42 43 44 45 46 47 48 49 50
000
ASUS43 KMPX 012210
RWRMN
WEATHER ROUNDUP FOR MINNESOTA
NATIONAL WEATHER SERVICE TWIN CITIES/CHANHASSEN MN
500 PM CDT SAT OCT 01 2016


NOTE: "FAIR" INDICATES FEW OR NO CLOUDS BELOW 12,000 FEET WITH NO
SIGNIFICANT WEATHER AND/OR OBSTRUCTIONS TO VISIBILITY. N/A MEANS
CURRENT SKY AND/OR WEATHER CONDITIONS ARE NOT AVAILABLE.

MNZ060>063-068>070-012300-
   Twin Cities Metro

CITY           SKY/WX    TMP DP  RH WIND       PRES   REMARKS
TWIN CITIES    MOSUNNY   74  55  51 NE10      30.07F
ST PAUL        SUNNY     71  54  54 NE8       30.08S
CRYSTAL        SUNNY     72  53  51 N6        30.07S
BLAINE         MOSUNNY   73  55  53 NE5       30.08F
LAKEVILLE      SUNNY     72  50  46 NE7       30.07S
EDEN PRAIRIE   SUNNY     74  56  53 NE6       30.06F
LAKEVILLE      SUNNY     72  50  46 NE7       30.07S
SOUTH ST PAUL  SUNNY     72  50  45 NE6       30.07S
LAKE ELMO      FAIR      72  55  56 N7        30.08S
$$
MNZ001>005-007-008-013>017-022>024-027-028-012300-
   Northwest Minnesota

CITY           SKY/WX    TMP DP  RH WIND       PRES   REMARKS
BEMIDJI        MOSUNNY   65  53  65 E7        30.12S
HALLOCK        CLOUDY    70  54  56 SE8       30.07S
ROSEAU         SUNNY     68  57  68 E5        30.11S
WARROAD        SUNNY     63  57  82 NE8       30.13S
THIEF RVR FALL CLOUDY    68  55  63 E12       30.10F
CROOKSTON      PTSUNNY   70  54  56 S6        30.08F
FOSSTON        CLOUDY    72  52  49 SE6       30.10S
DETROIT LAKES  CLOUDY    68  52  56 SE6       30.11F
MOORHEAD       MOSUNNY   72  54  53 E10       30.07S
PARK RAPIDS    SUNNY     70  49  47 SE7       30.11S
MAHNOMEN       FAIR      69  53  56 SE6       30.09S
$$
MNZ006-009>011-018-025>026-012300-
   North Central Minnesota

CITY           SKY/WX    TMP DP  RH WIND       PRES   REMARKS
BAUDETTE       CLOUDY    65  55  70 CALM      30.13F
FLAG ISLAND    SUNNY     63  54  72 S5        30.12F
INTL FALLS     CLOUDY    65  52  62 E5        30.14S
WASKISH        CLOUDY    63  55  77 W3        30.13S
BIG FORK       SUNNY     70  54  56 E5        30.13S
GRAND RAPIDS   SUNNY     68  53  58 NE3       30.14F
ORR            SUNNY     70  46  43 CALM      30.12S
COOK           SUNNY     70  50  49 CALM      30.14S
WALKER         FAIR      64  50  60 E6        30.12F
$$
MNZ012-019>021-037-012300-
   Northeast Minnesota

CITY           SKY/WX    TMP DP  RH WIND       PRES   REMARKS
DULUTH         SUNNY     65  51  60 E9        30.14S
ELY            SUNNY     70  45  40 CALM      30.14S
HIBBING        SUNNY     68  48  48 SE6       30.13F
EVELETH        SUNNY     70  44  38 E3        30.15S
DULUTH HARBOR  MOSUNNY   57  55  94 E7        30.15S
TWO HARBORS    SUNNY     64  57  77 E9        30.13S
SILVER BAY     SUNNY     64  54  68 E8        30.14S
GRAND MARAIS     N/A     62  56  80 CALM      30.15S
G MARAIS ARPRT SUNNY     63  45  51 SE6       30.18S
$$
MNZ029>031-032-039>041-046>048-054>057-064-012300-
   West Central Minnesota

CITY           SKY/WX    TMP DP  RH WIND       PRES   REMARKS
FERGUS FALLS   MOSUNNY   70  52  52 SE7       30.09S
WHEATON        SUNNY     75  55  50 SE8       30.07F
MORRIS         SUNNY     73  52  46 E9        30.07S
ALEXANDRIA     SUNNY     71  53  52 SE10      30.10F
ELBOW LAKE     FAIR      70  54  56 SE7       30.08S
WADENA         SUNNY     66  54  63 SE7       30.10S
GLENWOOD       SUNNY     73  54  49 E10       30.10S
BENSON         SUNNY     73  52  46 SE6       30.07F
ORTONVILLE     SUNNY     73  52  46 SE8       30.06F
MADISON        SUNNY     75  55  50 SE8       30.06F
WILLMAR        FAIR      73  55  53 SE8       30.08F
$$
MNZ033>034-036-042>043-049>051-058-059-012300-
   Central Minnesota

CITY           SKY/WX    TMP DP  RH WIND       PRES   REMARKS
ST CLOUD       SUNNY     70  56  61 E6        30.09F
SAUK CENTRE    FAIR      70  56  61 E6        30.10S
PAYNESVILLE    MOSUNNY   71  53  53 E7        30.09F
AITKIN         SUNNY     73  50  43 CALM      30.10F
PINE RIVER     SUNNY     68  55  64 SE5       30.14F
BRAINERD       MOSUNNY   69  55  60 VRB3      30.11F
STAPLES        SUNNY     72  52  49 E5        30.10F
LONG PRAIRIE   FAIR      70  54  56 NE5       30.10S
LITTLE FALLS   SUNNY     70  54  56 N3        30.10S
LITCHFIELD       N/A     72  57  60 E6        30.09F HAZE
BUFFALO        SUNNY     71  53  54 NE6       30.09F
MAPLE LAKE     SUNNY     71  57  60 E7        30.10S
HUTCHINSON     CLOUDY    72  55  55 NE8       30.09S
$$
MNZ037-044-045-052-053-012300-
   East Central Minnesota

CITY           SKY/WX    TMP DP  RH WIND       PRES   REMARKS
PRINCETON      SUNNY     72  57  60 E3        30.09F
MORA           SUNNY     70  50  49 SE3       30.10F
CAMBRIDGE      SUNNY     72  55  56 N3        30.07F
MOOSE LAKE     SUNNY     64  52  63 NE7       30.11S
HINCKLEY       FAIR      72  48  43 NE3       30.09F
CLOQUET        SUNNY     64  46  52 E7        30.14S
MCGREGOR       SUNNY     70  48  46 E5        30.12F
$$
MNZ071>073-080-081-089-090-097-098-012300-
   Southwest Minnesota

CITY           SKY/WX    TMP DP  RH WIND       PRES   REMARKS
MONTEVIDEO     MOSUNNY   77  54  44 SE9       30.08S
GRANITE FALLS  SUNNY     76  53  45 E8        30.08S
CANBY          SUNNY     74  53  47 E9        30.07S
MARSHALL       PTSUNNY   74  54  49 E7        30.06F
REDWOOD FALLS  SUNNY     74  51  44 E7        30.06F
OLIVIA         SUNNY     73  54  49 E6        30.07S
PIPESTONE      MOSUNNY   72  52  49 CALM      30.07F
WINDOM         MOSUNNY   72  52  49 NE7       30.07S
WORTHINGTON    CLOUDY    69  54  58 E6        30.08F
JACKSON        PTSUNNY   70  52  52 E6        30.08F
TRACY          MOSUNNY   72  55  54 E8        30.07F
$$
MNZ065>067-074>077-082>085-091>093-012300-
   South Central Minnesota

CITY           SKY/WX    TMP DP  RH WIND       PRES   REMARKS
MANKATO        SUNNY     72  53  51 NE5       30.07S
NEW ULM        SUNNY     72  52  49 E6        30.06F
ST JAMES       SUNNY     72  54  53 NE3       30.07S
FAIRMONT       CLOUDY    72  53  51 NE6       30.06S
FARIBAULT      SUNNY     73  46  38 NE5       30.07S
OWATONNA       SUNNY     72  43  35 NE12      30.06S
WASECA         SUNNY     72  46  40 NE8       30.07S
ALBERT LEA     SUNNY     73  52  46 E6        30.06R
$$
MNZ078>079-086>088-094>096-012300-
   Southeast Minnesota

CITY           SKY/WX    TMP DP  RH WIND       PRES   REMARKS
ROCHESTER      MOSUNNY   70  54  56 E8        30.07S
RED WING       SUNNY     73  45  35 E8        30.06S
DODGE CENTER   SUNNY     72  48  43 N7        30.07S
WINONA         MOSUNNY   70  52  52 SE6       30.05F
AUSTIN         MOSUNNY   70  52  52 E9        30.06S
PRESTON        MOSUNNY   67  53  59 NE5       30.07S
$$
ABBREVIATIONS USED IN REMARKS
   TC - TEMPERATURES IN CELSIUS
  WCI - WIND CHILL INDEX
   HX - HEAT INDEX
  VSB - VISIBILITY
$$




USA.gov is the U.S. government's official web portal to all federal, state and local government web resources and services.